GFSNGP_250_rhum_156.txt.gz
RH
72 84 92 80 68 64 77 85 61 66 61 56 65 63 50 36 35 35 32 41 57 59 61 51 37 26 17 18 12 9 6 6 5 4 4 4 4 4 4 4 5 6 7 6
95 94 93 74 78 99 70 72 62 67 70 71 64 34 34 36 39 44 61 69 68 59 40 32 24 18 19 13 9 7 6 5 5 4 5 5 5 4 4 4 5 6 8 8
83 96 87 69 100 88 76 81 64 65 63 35 35 36 35 43 50 54 63 64 50 40 32 26 20 23 14 10 8 7 6 6 6 5 6 5 5 5 5 5 5 6 8 9
90 86 87 99 98 92 84 78 79 83 40 35 32 33 46 58 62 65 56 51 45 36 32 28 27 20 14 10 8 8 6 6 7 7 6 6 6 6 6 6 6 7 8 12
90 91 91 93 99 95 90 83 79 46 39 35 36 50 64 71 65 59 54 44 38 36 36 34 26 17 14 10 9 8 7 7 8 8 8 7 7 7 7 7 7 8 11 15
99 94 88 96 92 90 83 50 39 42 41 45 64 69 73 62 63 63 54 47 40 37 43 37 23 17 13 11 10 9 8 8 9 8 9 10 11 9 8 8 9 11 14 18
93 93 89 80 67 50 37 38 44 45 57 72 74 70 59 66 68 59 49 42 41 43 44 34 22 16 14 13 10 9 9 9 9 11 12 13 15 16 15 12 14 17 18 24
91 62 44 36 37 39 41 47 57 76 77 80 70 69 86 77 58 48 44 41 46 45 40 30 21 16 14 15 11 11 9 9 8 11 14 18 16 21 24 16 18 21 25 26
34 31 35 44 40 41 49 67 79 83 86 68 76 86 70 60 49 44 42 45 46 43 33 27 20 16 14 15 13 11 10 10 10 10 12 19 21 19 23 25 23 25 32 33
32 40 43 51 61 62 69 75 80 81 63 79 79 59 59 53 49 45 47 47 39 32 27 23 18 16 14 12 14 12 10 10 10 10 11 12 19 17 21 24 25 33 50 45
44 49 64 74 75 79 84 93 77 64 84 74 57 58 54 53 51 47 38 29 24 21 19 18 16 14 13 12 12 13 11 9 9 9 10 10 12 15 15 20 28 27 33 48
66 88 91 83 80 88 88 64 71 80 66 57 54 60 57 48 35 26 20 18 15 15 14 14 12 12 11 10 10 12 12 11 9 8 8 9 8 10 13 16 17 26 28 28
89 86 89 85 87 79 62 60 57 62 55 59 62 48 34 23 19 14 11 10 9 8 8 8 8 8 8 8 9 11 11 10 9 9 8 8 7 7 8 10 12 14 17 25
85 87 83 90 72 85 72 70 59 55 64 55 41 26 20 15 11 9 8 8 8 8 7 7 7 7 7 7 8 8 10 10 9 9 8 8 8 7 7 6 7 9 10 15
83 83 68 75 75 70 67 57 65 65 45 31 24 19 14 14 13 10 10 10 10 9 9 9 8 8 8 7 8 8 9 10 10 8 7 7 6 6 6 6 5 5 6 7
76 83 84 77 78 66 71 75 59 42 32 26 19 17 18 17 16 15 14 15 14 13 13 12 11 11 10 9 8 8 8 9 9 8 7 7 7 6 7 6 5 4 4 5
79 71 76 73 72 85 75 58 45 33 27 19 19 21 22 25 23 22 22 21 20 19 19 17 15 14 12 10 9 8 8 8 7 7 7 7 6 7 7 6 5 5 4 4
78 75 70 77 81 69 64 45 36 29 20 18 24 28 30 32 33 31 30 27 23 22 19 16 15 13 11 10 8 7 7 6 6 5 5 5 5 6 6 6 5 5 5 4
83 79 83 76 72 66 59 42 30 27 20 25 31 36 41 40 37 34 28 26 24 23 20 17 14 10 8 6 5 5 4 4 4 4 4 4 5 5 4 4 4 4 5 5
91 82 79 68 64 60 54 37 29 25 21 30 41 42 43 42 37 35 34 32 32 31 23 17 13 9 6 5 5 4 3 3 3 3 3 3 3 3 4 4 4 4 4 4
84 76 71 65 62 54 46 33 28 26 22 34 45 46 44 42 40 38 37 35 36 30 24 16 11 7 6 5 4 3 3 3 2 2 2 3 3 3 3 3 3 3 4 4
75 70 64 60 57 51 43 34 29 28 24 29 44 47 44 43 40 38 40 37 31 28 21 15 11 6 5 4 4 3 3 3 2 2 2 2 2 2 2 3 2 2 2 3
73 67 58 57 52 48 40 34 31 30 28 24 37 47 46 43 44 43 40 38 34 26 18 13 9 6 4 4 4 3 3 3 2 2 2 2 2 2 2 2 2 2 2 2
64 62 54 48 44 43 39 34 31 30 30 25 27 39 43 42 41 38 38 32 26 20 15 11 8 5 4 4 3 3 3 3 2 2 2 2 2 2 2 2 2 2 2 2
56 49 42 41 40 39 37 34 32 29 28 27 24 32 39 42 45 42 37 29 22 19 14 10 8 5 4 4 3 3 3 3 2 2 2 2 2 2 2 2 2 2 2 2
44 43 40 40 38 38 36 34 33 30 26 26 23 24 34 40 37 33 31 28 23 18 13 11 8 5 4 4 3 3 3 2 2 3 2 2 2 2 2 2 2 2 2 2
42 42 43 42 36 35 33 32 31 29 27 24 22 21 27 33 33 32 29 27 25 19 12 10 8 4 4 3 3 3 3 3 2 2 2 2 2 2 2 2 2 2 2 2

GFSNGP_250_rhum_162.txt.gz
RH
100 100 100 100 100 92 72 86 94 96 79 98 92 69 77 75 67 85 76 85 83 66 63 84 66 30 27 32 39 47 42 31 23 19 21 21 12 9 7 7 6 6 5 5
100 100 100 100 100 100 100 95 87 89 77 97 93 85 82 73 85 77 96 86 64 70 89 57 28 30 39 46 48 42 32 26 23 22 24 18 11 8 7 6 6 6 6 6
100 100 100 100 100 98 92 94 97 96 100 92 89 87 86 82 83 76 70 69 76 81 40 32 35 46 54 51 43 34 30 26 26 28 24 15 12 9 8 7 7 6 7 6
100 100 100 100 97 99 96 80 88 98 97 88 95 89 85 77 70 70 67 77 64 34 31 36 46 54 53 45 37 32 28 29 31 32 26 14 14 10 10 8 8 7 7 6
100 100 100 100 100 96 95 96 86 94 88 78 92 74 68 75 70 68 69 47 31 32 40 53 54 52 41 33 29 27 27 30 32 30 23 18 13 12 10 9 8 8 7 7
94 100 89 96 90 88 91 80 98 79 87 99 70 75 83 80 60 61 41 33 35 48 54 53 47 38 31 28 28 29 28 27 23 20 18 18 13 11 10 10 9 8 7 7
97 97 97 88 100 95 86 95 100 94 94 83 84 94 69 61 63 41 38 49 57 59 58 48 38 32 28 29 28 22 17 15 13 13 14 14 13 10 9 10 9 8 8 6
100 100 100 100 86 97 96 99 100 100 87 98 95 60 72 51 42 44 57 63 65 62 48 38 33 33 32 22 16 13 10 9 8 8 10 11 12 10 8 9 9 7 8 7
100 100 100 100 100 100 100 100 100 94 100 78 61 62 44 43 52 68 72 68 58 46 37 33 37 28 19 12 10 8 8 7 7 6 6 7 9 9 8 7 9 8 7 7
100 100 100 100 100 100 100 100 95 83 52 62 44 44 52 76 72 67 65 51 44 38 38 36 24 18 14 14 12 10 10 9 8 7 6 6 7 7 7 6 6 8 7 6
88 100 100 99 94 83 77 58 47 59 47 44 48 75 78 73 70 58 50 45 43 40 34 24 19 19 19 18 16 14 13 11 10 9 8 7 6 6 6 6 6 7 7 6
59 60 51 49 44 37 55 62 48 43 45 73 86 78 74 65 55 50 51 52 41 32 25 20 23 25 23 23 21 16 14 14 13 12 11 9 7 6 5 6 6 6 7 7
39 37 44 51 53 50 46 44 49 78 88 81 76 73 63 55 52 61 59 42 32 24 20 26 28 28 26 22 21 20 18 15 13 11 11 10 9 8 6 5 6 5 5 6
51 55 49 52 53 49 54 83 93 84 79 77 75 68 60 56 64 56 46 31 26 21 27 31 31 30 30 33 28 25 21 19 16 13 11 9 9 8 6 6 5 5 5 4
50 58 65 61 64 91 98 94 87 80 79 78 69 59 62 66 55 48 34 27 21 25 33 34 36 36 38 38 35 30 26 20 16 12 9 6 6 5 4 4 4 5 4 4
70 71 80 95 100 100 97 88 86 85 76 64 67 74 65 56 48 38 27 25 22 31 36 38 38 40 42 43 39 32 27 21 15 11 7 5 4 4 4 4 3 4 4 4
89 98 100 100 99 95 91 88 80 69 77 85 76 65 56 46 42 32 26 23 22 31 39 39 39 40 43 41 36 29 26 22 14 10 6 4 4 3 3 3 3 3 3 3
100 100 100 98 91 87 79 73 82 94 89 74 65 58 48 45 38 32 27 25 21 22 31 36 37 35 34 34 31 28 24 20 14 10 5 4 4 3 3 3 3 2 2 3
100 100 96 88 82 86 94 96 93 82 70 64 60 52 43 40 35 32 30 27 24 21 21 26 33 34 32 29 27 23 20 16 11 8 5 4 4 3 3 3 3 2 2 2
100 99 100 100 99 95 87 77 72 68 64 60 54 42 40 38 34 31 30 29 27 25 22 21 23 27 27 25 23 19 17 13 9 7 4 4 3 3 3 3 2 2 2 2
86 85 83 80 77 73 69 67 65 60 56 50 43 38 36 35 34 31 29 28 27 25 22 19 18 19 22 21 17 16 14 11 8 6 4 3 3 3 2 3 2 2 2 2
76 75 75 72 68 64 61 57 53 50 45 41 40 37 35 34 32 29 27 26 25 23 20 18 15 16 16 17 14 13 13 11 8 6 4 3 3 3 2 2 2 2 2 2
73 68 66 63 56 47 44 42 41 39 38 37 35 32 31 31 30 29 26 24 23 21 19 16 14 14 14 15 13 12 12 10 7 5 3 3 3 3 2 2 2 2 2 2
77 74 64 57 51 43 41 39 38 37 37 34 32 31 30 28 27 26 24 22 21 19 17 14 12 13 14 13 11 11 11 9 7 4 3 3 3 3 2 2 2 2 2 2
66 61 58 57 54 48 42 39 37 36 34 31 30 28 27 26 24 22 21 19 18 17 14 12 12 12 12 12 10 10 9 8 5 4 3 3 2 3 2 2 2 2 2 2
71 70 66 58 52 46 43 39 36 34 32 30 28 25 24 23 21 20 18 16 16 14 12 11 11 12 12 10 8 9 8 6 4 3 3 3 2 2 2 2 2 2 2 2
73 68 59 52 46 42 39 36 32 30 30 28 25 22 21 19 18 17 16 15 14 12 11 10 10 11 10 8 8 9 7 5 4 3 3 3 2 2 2 2 2 2 1 2

GFSNGP_250_rhum_165.txt.gz
RH
100 100 100 100 100 100 100 100 100 100 94 98 95 79 86 99 93 88 95 84 81 79 73 73 71 69 55 39 37 29 27 30 34 39 39 34 28 24 21 22 26 18 11 8
100 100 100 100 100 97 86 88 96 100 100 100 100 100 100 100 100 92 88 78 75 79 76 67 70 58 44 39 28 30 30 38 41 39 33 28 28 28 25 24 24 20 14 9
100 100 100 100 100 100 100 100 100 100 100 100 94 88 100 100 91 84 86 87 89 72 65 68 67 45 35 30 30 34 41 43 37 30 27 29 31 30 29 25 20 18 16 10
100 100 100 97 100 100 100 100 100 100 100 100 100 100 96 95 96 93 86 81 67 63 68 65 42 30 28 31 38 45 44 36 30 29 28 24 19 17 17 15 15 13 15 11
100 100 100 100 100 100 100 100 100 100 99 94 99 100 99 100 94 86 76 64 74 74 63 45 32 30 34 44 45 39 34 30 31 26 16 12 10 10 10 10 10 9 11 11
100 100 100 100 100 100 100 93 88 89 100 96 87 96 87 95 86 77 65 71 85 64 51 34 34 39 47 43 36 35 35 31 19 13 9 7 6 6 6 6 7 8 8 10
87 79 84 95 90 81 66 83 91 84 93 97 98 98 93 91 69 60 79 87 67 49 36 38 47 48 38 37 39 38 26 17 12 10 9 8 7 6 5 5 5 6 7 8
96 92 82 83 80 71 74 81 74 93 98 98 97 89 83 66 61 80 88 63 49 41 48 58 47 37 42 45 36 24 17 13 15 16 15 12 10 8 6 6 5 5 5 6
84 95 97 94 80 70 77 81 78 82 87 97 94 79 62 76 90 96 64 49 48 62 59 45 40 48 48 32 24 18 16 21 20 18 16 13 13 11 10 7 6 5 5 4
56 71 80 77 89 99 92 87 83 87 93 84 73 71 92 99 70 61 47 54 69 56 44 41 50 46 34 26 20 18 24 25 22 19 15 14 12 12 11 11 9 6 5 4
42 71 82 94 94 97 100 100 100 100 92 74 86 98 61 57 52 49 70 70 52 42 42 49 42 37 28 23 20 25 26 24 23 23 22 16 11 10 9 9 9 10 7 4
37 50 72 88 90 90 100 100 94 82 89 87 52 51 49 48 68 74 61 45 42 49 52 41 38 30 26 21 25 29 30 27 28 26 22 17 15 8 7 7 7 7 7 6
28 38 44 55 84 90 81 63 60 46 48 53 46 48 69 78 67 53 45 48 59 53 43 39 32 27 24 23 31 33 31 31 30 26 23 20 18 15 9 6 5 4 4 5
26 38 58 67 64 56 36 41 56 52 51 55 69 78 72 61 54 52 59 65 54 48 42 37 29 25 21 23 31 32 31 29 28 25 21 18 16 13 8 6 5 4 3 3
42 52 46 37 39 53 70 54 58 67 74 76 74 66 61 60 60 72 68 55 51 44 40 34 28 24 21 21 26 31 29 26 23 19 16 15 13 11 6 5 4 4 3 3
44 38 46 61 72 64 68 84 87 80 80 73 68 65 62 69 79 71 58 54 48 42 37 31 27 25 22 20 19 21 23 23 21 17 15 12 12 10 5 4 3 3 3 3
68 74 70 73 86 94 97 84 82 76 68 66 66 74 84 80 70 62 57 52 40 37 34 30 27 26 24 21 19 16 16 15 17 15 12 11 11 8 5 4 3 3 3 3
76 96 100 96 92 87 77 68 66 73 81 88 91 88 80 68 63 57 53 41 36 34 33 31 28 25 23 20 18 15 13 14 13 13 9 10 10 7 5 4 3 3 3 2
99 94 94 90 78 72 78 92 97 94 91 85 78 71 66 62 57 50 41 37 35 33 32 29 26 23 20 18 16 14 12 12 12 12 9 9 9 6 4 3 3 3 3 2
92 87 83 85 89 89 84 79 77 74 70 67 64 60 56 51 46 41 37 36 35 32 29 26 23 21 18 16 15 13 11 11 11 10 8 8 7 5 4 3 3 3 3 2
84 82 84 84 80 76 74 73 70 66 59 54 50 46 43 42 40 39 37 34 31 27 25 22 20 18 16 14 13 11 11 10 9 9 7 7 5 4 4 3 3 3 2 2
86 89 88 83 76 73 72 68 61 53 47 43 41 41 41 39 36 36 33 31 28 25 23 20 17 16 14 12 12 10 10 9 9 8 7 6 5 4 3 3 2 2 2 2
88 96 90 84 80 78 75 69 64 61 56 50 45 42 40 38 34 32 27 25 23 20 19 17 15 14 12 11 10 10 9 9 8 8 7 6 5 4 3 3 2 2 2 2
90 88 84 81 77 66 60 56 54 55 54 51 49 43 37 33 29 25 22 20 18 17 15 14 13 12 10 10 9 9 8 9 8 8 7 7 5 4 3 3 2 2 2 2
94 88 81 81 80 71 68 62 59 54 52 52 47 37 34 28 24 20 17 16 15 14 13 12 11 10 9 9 9 8 9 9 8 7 7 6 4 3 3 2 2 2 2 2
90 92 94 90 85 72 67 62 60 59 61 60 48 40 31 24 20 17 14 14 13 12 11 11 10 9 9 8 8 8 9 8 7 6 6 5 4 3 3 2 2 2 2 2
99 93 93 90 80 70 64 61 60 63 64 54 45 36 26 19 16 14 12 12 11 10 10 9 9 9 8 8 8 9 8 7 6 6 5 4 3 3 3 2 2 2 2 2

GFSNGP_250_rhum_171.txt.gz
RH
100 80 100 100 100 100 100 100 100 100 100 100 100 100 100 100 100 97 99 95 83 88 100 98 79 94 98 78 93 72 79 65 58 69 65 53 40 25 20 23 24 21 19 18
100 100 86 92 100 100 100 100 100 100 100 100 100 100 98 90 78 87 100 100 100 100 100 72 70 70 84 84 78 69 67 60 62 64 52 40 24 22 25 24 22 24 18 12
100 100 89 99 85 92 92 88 91 88 94 100 100 100 100 100 100 100 100 100 96 75 75 79 77 84 94 84 73 76 60 65 59 55 41 25 24 30 26 26 26 18 14 10
100 100 100 100 100 100 100 100 100 100 100 100 100 100 100 100 100 100 100 99 100 99 90 87 84 88 93 77 80 73 67 60 54 43 26 26 32 29 29 28 19 14 10 12
100 100 99 79 99 86 66 99 99 79 96 100 100 100 100 99 100 99 100 100 93 99 87 92 89 87 90 77 80 76 65 57 42 25 29 35 31 33 31 22 16 11 11 13
100 100 100 100 100 100 99 100 100 100 100 100 95 100 100 100 100 100 94 94 95 95 99 92 90 88 84 83 80 71 57 41 24 33 37 35 36 33 24 17 13 10 12 14
74 95 98 100 94 99 93 89 91 93 91 80 92 91 99 99 97 98 95 92 85 100 89 84 85 89 89 80 72 56 36 23 33 40 38 41 34 25 18 15 10 10 14 13
24 30 54 88 72 68 79 76 76 78 79 94 93 92 94 92 100 100 81 75 90 96 92 90 90 90 81 72 52 32 24 35 42 40 44 35 27 21 16 14 11 10 13 15
15 16 15 17 24 29 43 39 50 70 60 56 53 62 74 88 88 84 80 87 89 90 90 85 87 82 65 45 29 28 40 45 40 44 36 28 24 19 17 14 12 12 12 13
13 12 14 14 16 17 18 18 20 25 30 36 57 72 64 46 45 49 61 73 86 84 86 89 76 59 35 32 35 46 47 42 46 38 29 24 23 19 18 16 14 13 12 12
12 14 13 14 16 17 18 19 20 21 24 28 37 53 76 72 60 63 74 66 69 90 87 66 53 36 38 45 52 46 45 49 40 33 25 23 21 19 16 16 14 12 11 12
11 13 14 14 15 16 17 18 20 22 26 36 41 56 69 73 61 60 63 86 88 74 61 48 39 44 57 54 45 52 50 42 34 26 23 21 19 16 17 16 13 11 9 10
11 12 14 14 15 16 17 18 20 21 24 31 46 55 68 58 60 69 80 70 62 59 47 42 56 64 53 51 57 49 41 32 26 23 21 19 17 16 15 12 10 9 9 8
13 13 15 16 17 18 19 20 21 24 31 42 57 72 75 73 83 81 66 65 56 47 58 68 60 58 64 57 47 39 30 24 21 19 18 17 15 13 13 12 11 9 8 7
13 15 18 20 21 22 23 24 28 34 41 54 68 77 78 82 68 62 58 56 66 72 63 63 68 60 52 43 33 26 22 20 20 18 16 15 13 11 11 11 9 9 8 6
15 18 20 24 23 24 27 24 31 46 48 52 64 67 60 59 62 66 75 74 69 70 65 57 51 43 33 26 24 21 20 19 18 16 14 13 12 11 10 9 8 7 7 7
18 22 26 29 32 34 38 52 60 62 62 53 57 67 72 82 80 70 71 69 60 55 48 39 33 29 27 25 23 21 18 17 15 13 11 10 10 9 9 8 7 6 6 5
25 27 30 39 44 49 53 59 57 69 83 84 82 85 75 69 70 65 60 53 48 42 39 38 35 33 31 28 24 20 17 14 12 10 9 10 9 8 8 7 6 6 5 4
28 34 48 57 57 60 68 89 93 89 86 78 74 68 63 61 61 57 53 50 51 51 50 47 43 37 28 23 19 17 14 12 10 9 8 8 8 8 8 6 6 5 5 4
39 56 62 72 90 94 96 89 79 74 70 71 68 65 66 66 66 68 68 68 65 59 50 42 34 29 23 20 17 15 12 10 8 8 8 7 7 7 6 6 5 5 5 4
66 76 91 98 92 78 75 70 70 77 77 71 69 69 68 69 69 67 64 57 52 50 43 34 26 22 20 18 15 12 9 8 7 7 7 7 7 6 5 5 5 5 4 4
96 96 82 74 71 69 73 80 82 76 72 73 72 72 70 68 66 64 60 54 46 39 32 28 24 23 19 15 12 9 8 7 7 6 6 6 6 5 5 5 5 4 3 4
75 74 71 69 72 77 80 76 67 66 68 73 74 73 70 66 59 57 52 48 49 40 34 30 27 23 17 13 10 8 7 7 7 7 6 6 5 5 5 5 4 4 4 3
72 72 71 72 71 71 68 65 68 71 74 75 76 76 73 64 58 57 54 60 54 44 37 30 24 18 14 11 9 8 7 7 6 6 6 5 5 6 5 5 4 4 4 3
80 76 70 68 67 64 68 77 78 79 80 80 80 76 66 63 64 62 68 58 44 37 29 21 16 13 11 10 9 7 6 6 6 5 5 5 6 5 5 4 4 4 3 2
76 74 70 67 68 76 88 87 87 89 94 90 80 72 67 69 64 67 57 42 31 24 18 14 13 11 10 8 7 6 6 6 5 5 5 6 5 5 4 4 4 3 2 2
73 74 73 72 79 86 87 86 86 88 82 75 78 73 73 69 67 52 31 24 21 16 13 12 10 9 8 7 6 6 5 5 5 5 6 6 5 5 4 4 4 3 2 2